Temperature
15 15 15 15 15 15 15 15 15 15 15 15 15 15 15 15 15 15 15 15 15 15 15 15 15 15 15 15 15 15 15 15 15 15 15 15 15 15 15 15 15 15 15
15 15 15 15 15 15 15 15 14 15 15 15 15 15 15 15 15 15 15 15 15 15 15 15 15 14 15 15 15 15 15 15 15 15 15 15 15 15 15 15 15 15 15
15 15 15 15 14 14 14 14 14 14 14 14 14 14 14 14 14 14 15 15 15 15 15 14 14 14 14 14 14 14 15 15 15 15 15 15 15 15 15 15 15 15 15
14 14 14 14 14 14 14 14 14 14 14 14 14 14 14 14 14 14 14 14 14 14 14 14 14 14 14 14 14 14 14 14 15 15 15 15 15 15 15 15 15 15 15
14 14 14 14 14 14 14 14 14 14 14 14 14 14 14 14 14 14 14 14 14 14 14 14 14 14 14 14 14 14 14 14 14 14 15 15 15 15 14 14 14 14 14
14 14 14 14 14 13 13 13 14 14 14 14 14 14 13 13 13 13 13 13 14 14 14 14 14 14 14 14 14 14 14 14 14 14 14 14 14 14 14 14 14 14 14
14 14 14 13 13 13 13 13 13 13 13 13 13 13 13 13 13 13 13 13 13 13 13 14 14 14 14 14 14 14 14 14 14 14 14 14 14 14 14 14 14 14 14
14 13 13 13 13 13 13 13 13 13 13 13 13 13 13 13 13 13 13 13 13 13 13 13 13 13 13 14 13 13 13 13 13 14 14 14 14 14 14 14 14 14 14
13 13 13 13 13 13 13 13 12 12 13 13 12 12 12 12 12 12 12 12 12 12 13 13 13 13 13 13 13 13 13 13 13 13 13 13 13 13 13 13 13 13 13
13 13 13 13 13 13 12 12 12 12 12 12 12 12 12 12 12 12 12 12 12 12 12 12 12 13 13 13 13 13 13 13 13 13 13 13 13 13 13 13 13 13 13
13 13 13 12 12 12 12 12 12 12 12 12 12 12 12 12 12 11 12 12 12 12 12 12 12 12 12 12 12 12 12 13 13 13 13 13 13 13 13 13 13 13 13
13 13 12 12 12 12 12 12 12 12 12 12 12 12 12 12 12 11 11 11 11 12 12 12 12 12 12 12 12 12 12 12 12 12 12 12 12 12 13 12 13 13 13
13 12 12 12 12 12 12 12 12 12 12 12 12 12 12 12 12 11 11 11 11 11 12 12 12 12 12 12 12 12 12 12 12 12 12 12 12 12 12 12 12 12 12
12 12 12 12 12 11 11 11 11 11 11 12 12 12 12 12 12 11 11 11 11 11 11 11 11 11 11 11 11 11 11 11 11 12 12 12 12 12 12 12 12 12 12
12 12 12 11 11 11 11 11 11 11 11 11 11 11 11 11 11 11 11 11 11 11 11 11 11 11 11 11 11 11 11 11 11 11 11 12 12 12 12 12 12 12 12
12 12 12 11 11 11 11 11 11 11 11 11 11 11 11 11 11 11 11 11 11 11 11 11 11 11 11 11 11 11 11 11 11 11 11 11 11 11 12 12 12 12 12
12 12 11 11 11 11 11 11 11 11 11 11 11 11 11 11 11 11 11 11 11 11 11 11 11 11 11 11 11 11 11 11 11 11 11 11 11 11 11 11 11 11 11
11 11 11 11 11 11 11 11 11 10 10 11 11 11 11 11 11 11 11 11 11 11 10 11 11 11 11 11 11 11 11 11 11 11 11 11 11 11 11 11 11 11 11
11 11 11 11 11 10 10 10 10 10 10 10 10 10 10 10 10 10 10 10 10 10 10 10 10 10 10 10 11 11 11 11 11 11 11 11 11 11 11 11 11 11 11
11 11 11 10 10 10 10 10 10 10 10 10 10 10 10 10 10 10 10 10 10 10 10 10 10 10 10 10 10 10 10 10 10 10 10 10 10 10 11 11 11 11 11
11 11 10 10 10 10 10 10 10 10 10 10 10 9 9 9 9 10 10 10 10 10 10 10 10 10 10 10 10 10 10 10 10 10 10 10 10 10 11 10 11 11 10
10 10 10 10 10 10 10 9 9 9 9 9 9 9 9 9 9 9 9 9 9 9 9 9 9 9 9 9 9 9 9 9 10 10 10 10 10 10 10 10 10 10 10
10 10 10 10 10 10 9 9 9 9 9 9 9 9 9 9 9 9 9 9 9 9 9 9 9 9 9 9 9 9 9 9 9 9 9 10 10 10 10 10 10 10 10
10 10 10 9 9 9 9 9 9 9 9 9 9 8 8 8 8 8 8 9 9 9 9 9 9 9 9 9 9 9 9 9 9 9 9 9 9 9 10 10 10 10 10
10 9 9 9 9 9 9 9 8 8 8 8 8 8 8 8 8 8 8 8 8 8 8 8 8 8 8 8 8 8 8 8 8 8 9 8 9 9 9 9 9 9 9
9 9 9 9 9 9 9 8 8 8 8 8 8 8 8 8 8 8 8 8 8 8 8 8 8 8 8 8 8 8 8 8 8 8 8 8 8 8 8 8 9 9 9
Wind_Speed
2 3 3 4 4 5 5 4 4 4 4 4 5 5 5 6 6 7 7 8 8 7 6 5 5 5 5 6 6 6 6 5 5 5 3 4 4 4 4 5 5 4 4
3 3 3 3 4 4 4 4 4 3 3 3 4 4 4 5 6 7 7 8 9 8 7 6 5 5 5 4 4 4 4 4 4 4 4 4 5 5 5 5 5 5 5
4 3 3 3 3 4 5 4 4 4 3 4 4 4 4 4 5 6 7 7 8 8 8 7 6 5 5 5 4 4 4 4 4 4 4 4 4 5 5 5 5 6 6
5 4 3 2 3 4 4 3 3 3 3 3 3 3 3 4 5 5 6 7 7 7 7 8 7 6 5 4 5 4 4 4 4 5 5 5 4 4 4 5 5 6 6
5 4 3 2 3 3 3 3 3 2 2 2 2 3 3 3 4 5 5 6 7 6 6 7 8 8 7 6 5 4 4 4 4 4 5 5 5 4 4 5 6 6 7
5 5 3 3 3 2 2 3 3 3 2 2 2 3 3 3 3 4 5 5 6 7 7 7 7 7 8 8 6 5 5 5 4 4 5 5 5 4 4 5 5 6 7
4 4 3 3 3 2 2 2 2 3 2 2 2 3 3 3 3 3 4 4 5 6 6 6 6 6 6 7 7 6 6 6 5 5 5 5 5 5 4 5 5 6 7
3 3 3 2 2 2 2 2 2 2 2 2 2 2 3 4 4 4 4 4 4 4 5 6 6 6 6 6 6 6 7 6 6 5 5 5 5 5 4 5 5 6 6
2 3 3 3 2 2 1 1 1 2 1 2 2 2 2 1 3 3 3 4 4 3 4 4 5 6 6 6 5 5 6 5 5 5 5 5 5 5 5 4 5 5 5
2 2 2 2 2 2 1 1 1 1 2 1 1 2 1 2 1 2 3 3 4 3 4 3 4 5 5 5 6 6 6 6 6 5 4 4 4 4 5 4 4 4 5
1 1 1 2 1 1 1 1 1 1 1 1 1 1 1 2 1 1 2 4 4 3 3 3 3 3 4 4 4 5 6 5 5 4 3 3 4 4 3 3 3 3 4
1 1 1 1 1 1 1 1 1 1 1 1 1 1 1 1 1 1 1 2 3 3 3 2 2 3 3 3 4 5 5 5 4 4 3 3 3 3 2 2 2 3 3
1 1 0 1 1 1 2 1 1 1 1 1 1 1 2 2 2 2 2 1 2 3 3 2 2 2 3 3 3 4 4 4 4 3 3 2 2 2 2 1 1 2 2
2 1 1 1 1 1 1 1 1 1 1 1 1 1 1 1 2 3 3 2 1 2 2 3 2 2 2 3 3 3 3 3 3 2 2 2 1 1 1 1 1 2 2
2 2 1 1 1 0 1 1 1 2 1 2 2 1 1 1 1 1 2 3 3 1 3 3 2 2 2 2 2 2 2 3 3 3 1 0 0 0 1 0 1 1 1
2 2 1 1 1 0 0 1 0 1 1 1 1 1 1 1 1 1 1 1 2 3 3 3 3 2 2 2 3 2 3 3 4 3 2 2 2 1 1 1 1 1 2
2 2 2 2 2 1 1 1 1 1 1 1 1 1 1 1 1 1 1 1 1 2 3 3 2 2 2 2 2 2 3 3 4 4 4 4 4 3 3 3 3 2 3
3 3 2 2 2 2 2 2 2 1 1 1 2 1 2 1 1 1 1 1 2 2 3 3 2 2 2 2 2 2 2 2 3 4 5 5 5 5 4 4 4 4 4
3 2 2 3 3 3 3 3 3 3 3 3 2 2 2 2 2 2 2 2 2 2 2 2 2 2 2 1 1 2 2 2 4 4 4 5 6 5 5 5 5 4 4
3 3 3 3 3 3 3 3 3 2 2 2 2 2 2 3 3 3 3 3 2 1 1 1 2 2 2 1 0 1 2 2 3 3 3 3 4 5 5 6 6 6 5
4 3 3 3 3 3 4 4 3 3 3 2 2 2 3 3 3 3 2 2 2 2 1 2 2 2 2 1 2 2 2 2 3 2 1 2 2 3 4 7 8 8 8
3 3 3 3 3 4 4 4 4 3 3 3 3 3 3 3 4 4 4 3 4 3 3 3 2 3 4 3 2 2 2 1 2 1 1 2 1 3 4 6 8 8 8
4 4 4 4 4 5 5 5 5 4 4 4 4 3 3 4 4 3 4 4 5 5 5 4 4 5 4 4 3 3 3 3 4 2 1 2 1 2 4 6 8 8 9
4 4 4 4 4 5 6 6 6 4 4 4 4 4 4 5 4 3 3 3 4 4 6 5 5 6 5 4 5 5 4 2 2 2 2 2 1 2 3 4 6 7 7
4 4 3 3 3 4 5 5 4 3 3 4 4 4 4 5 5 3 2 3 4 5 6 6 7 6 5 4 4 2 2 2 2 2 2 2 2 1 2 2 4 4 5
4 3 2 3 3 4 4 3 3 3 3 3 3 4 5 5 5 4 4 4 5 5 4 3 4 4 3 3 4 4 4 4 2 2 2 2 2 1 1 1 1 2 2
Wind_Direction
58 49 44 43 43 47 47 43 44 49 52 50 50 50 40 33 25 22 15 26 33 36 43 50 60 61 62 59 60 60 59 57 56 54 61 67 66 83 103 107 105 103 99
84 70 55 47 42 46 52 56 52 49 49 55 52 49 40 35 29 23 18 18 24 31 38 41 46 53 55 53 47 50 54 54 54 51 56 65 67 78 99 106 99 92 89
95 87 72 57 41 49 59 59 53 50 50 50 42 41 42 36 32 25 22 19 17 21 28 34 36 43 43 41 37 44 51 55 54 55 61 71 79 78 86 100 98 95 91
103 90 77 60 45 55 62 64 50 47 39 38 33 24 31 34 30 30 28 24 21 19 18 24 29 32 30 33 32 36 50 59 62 63 65 67 77 84 84 89 96 97 91
111 102 84 62 60 62 57 62 53 56 50 36 36 32 26 25 20 30 27 24 20 19 19 20 25 24 23 27 38 43 49 56 56 65 67 65 75 95 98 94 91 92 92
118 112 99 77 71 68 56 59 65 50 51 38 46 36 20 16 25 25 20 22 23 21 22 26 24 15 19 26 39 49 56 57 55 59 63 65 67 85 104 104 96 94 93
119 117 100 87 78 82 74 72 74 60 40 26 51 22 7 15 27 16 15 20 21 19 21 25 27 21 13 18 28 42 52 56 56 56 61 68 69 71 94 107 100 98 97
122 132 125 123 110 97 72 62 71 68 39 36 77 66 11 354 359 3 5 14 9 12 16 19 28 25 21 18 16 32 42 51 61 66 65 66 68 68 84 108 110 107 106
114 127 134 128 120 118 120 95 88 95 81 24 53 108 107 281 318 336 357 10 6 8 4 12 25 21 21 19 12 25 37 47 61 69 72 69 68 66 75 97 118 117 116
88 106 118 122 124 128 135 160 107 113 115 78 30 50 114 154 133 328 336 350 356 2 357 3 8 12 19 21 12 19 28 38 47 54 65 71 72 75 71 84 110 123 127
46 85 125 131 144 159 168 162 119 124 130 144 138 113 80 66 99 133 308 329 341 343 350 348 355 4 8 19 9 14 22 24 32 37 47 65 68 74 68 81 100 125 132
1 27 101 143 182 187 195 195 169 158 154 147 154 155 161 164 178 155 224 295 312 316 333 340 348 347 353 12 7 10 11 10 20 30 39 54 62 62 64 61 104 106 122
274 274 285 222 229 222 203 175 159 192 178 171 189 197 196 201 176 164 169 246 297 311 327 326 326 337 346 3 359 1 3 0 10 26 39 49 61 51 46 52 107 112 115
222 233 233 260 257 241 211 177 182 216 196 204 217 202 204 223 187 178 174 164 310 320 318 295 319 318 331 334 340 352 356 353 354 1 43 46 47 41 24 44 82 120 128
214 195 181 195 260 235 197 161 227 229 194 211 217 210 220 247 215 207 187 177 169 222 276 280 285 304 319 318 325 339 324 323 325 315 324 353 0 175 164 129 40 168 152
206 175 177 191 208 228 202 145 307 281 197 224 208 191 239 259 221 200 197 199 188 185 237 255 250 279 303 313 328 325 299 295 298 294 282 270 252 237 211 219 251 236 198
193 188 194 197 199 212 203 167 232 254 225 257 245 192 246 233 201 210 177 182 197 178 224 271 271 292 292 298 331 328 305 298 295 285 269 259 250 248 250 240 237 240 208
205 204 200 203 211 212 203 200 222 233 219 238 254 218 241 228 222 223 209 220 218 203 202 249 278 281 274 284 310 319 311 303 291 286 270 259 253 254 250 244 239 243 216
207 205 200 210 217 213 210 215 216 218 221 231 238 237 242 208 240 242 233 234 233 221 203 214 264 272 280 297 334 327 317 310 306 291 276 264 256 254 246 239 235 241 219
199 207 208 216 223 221 214 213 210 212 223 235 241 245 249 229 232 232 232 228 213 192 188 207 260 277 272 284 266 280 304 306 305 299 287 276 264 253 244 239 238 238 223
205 207 207 223 228 224 217 205 203 209 217 237 253 256 259 265 264 240 240 216 189 190 195 219 246 266 253 242 237 227 250 299 298 274 298 293 278 261 250 243 238 238 228
217 210 214 223 235 243 236 213 199 208 214 224 245 260 266 263 274 269 263 231 197 196 209 213 237 242 243 235 227 228 224 272 282 270 197 288 246 259 259 246 240 240 230
216 221 225 223 233 247 242 224 214 203 217 228 234 244 262 270 262 259 264 255 238 234 221 211 231 241 239 225 209 223 220 217 236 239 204 263 251 255 263 261 250 240 232
212 219 224 225 233 249 249 237 224 213 226 235 235 233 240 257 254 238 248 258 252 250 245 234 235 243 240 223 211 214 212 219 257 253 192 223 243 258 287 276 256 233 231
221 220 224 222 232 258 263 244 213 207 234 250 254 254 251 251 260 244 235 254 271 274 271 263 256 258 260 242 204 165 174 184 242 246 196 195 228 272 287 273 267 248 234
222 216 222 222 227 254 278 261 210 197 227 248 262 264 263 264 269 250 226 235 255 264 276 284 281 278 271 245 210 199 197 201 210 238 205 188 207 190 289 276 272 266 257
Height
1531 1531 1531 1531 1530 1530 1530 1530 1530 1529 1529 1529 1528 1528 1528 1527 1527 1527 1527 1527 1526 1526 1526 1525 1525 1525 1525 1525 1524 1524 1524 1524 1524 1524 1524 1523 1521 1519 1519 1522 1525 1526 1528
1531 1531 1531 1531 1531 1531 1531 1530 1530 1530 1529 1529 1528 1528 1528 1528 1527 1527 1527 1527 1527 1526 1526 1526 1526 1525 1525 1525 1525 1525 1525 1525 1525 1524 1524 1523 1522 1519 1520 1522 1525 1527 1528
1532 1532 1532 1531 1531 1531 1531 1531 1530 1530 1529 1529 1528 1528 1528 1528 1527 1527 1527 1527 1527 1526 1526 1526 1526 1526 1526 1526 1525 1525 1525 1525 1525 1525 1524 1524 1524 1523 1523 1524 1526 1527 1528
1532 1532 1532 1531 1531 1531 1531 1531 1530 1530 1529 1529 1528 1528 1528 1527 1527 1527 1527 1527 1527 1527 1526 1526 1526 1526 1526 1526 1526 1526 1525 1525 1525 1525 1525 1525 1525 1525 1526 1526 1527 1528 1529
1532 1532 1532 1532 1531 1531 1531 1530 1530 1530 1529 1529 1528 1528 1527 1527 1527 1527 1526 1526 1526 1526 1526 1526 1526 1526 1526 1526 1526 1526 1526 1525 1526 1526 1525 1525 1526 1526 1526 1527 1528 1528 1529
1532 1532 1532 1532 1531 1531 1531 1530 1530 1529 1529 1529 1528 1528 1527 1527 1527 1527 1526 1526 1526 1526 1526 1526 1526 1526 1526 1526 1526 1526 1526 1526 1526 1526 1526 1526 1526 1527 1527 1528 1528 1529 1530
1531 1531 1531 1531 1531 1531 1530 1530 1530 1529 1529 1528 1528 1528 1528 1527 1527 1527 1526 1526 1525 1525 1525 1525 1525 1525 1525 1525 1525 1525 1525 1526 1526 1526 1526 1526 1527 1527 1528 1528 1529 1529 1530
1531 1531 1531 1531 1531 1531 1530 1530 1529 1529 1529 1528 1528 1528 1528 1529 1527 1527 1526 1526 1525 1525 1525 1525 1525 1525 1525 1525 1525 1525 1525 1525 1526 1526 1526 1526 1527 1527 1528 1528 1529 1529 1530
1530 1530 1530 1530 1530 1530 1530 1530 1529 1529 1528 1529 1529 1529 1528 1528 1527 1527 1526 1526 1525 1525 1524 1524 1524 1524 1525 1524 1524 1524 1524 1525 1525 1525 1526 1526 1526 1527 1528 1528 1529 1529 1530
1529 1529 1529 1529 1529 1530 1529 1529 1529 1529 1529 1528 1528 1529 1529 1528 1528 1526 1526 1526 1525 1525 1524 1524 1524 1524 1524 1524 1524 1523 1524 1524 1524 1525 1525 1525 1526 1527 1527 1528 1529 1529 1530
1527 1528 1528 1528 1528 1528 1529 1529 1528 1528 1528 1528 1528 1528 1528 1528 1527 1527 1526 1525 1525 1525 1524 1524 1524 1524 1524 1524 1523 1523 1523 1524 1524 1524 1525 1525 1526 1526 1527 1528 1528 1529 1529
1526 1526 1527 1527 1527 1527 1527 1527 1527 1527 1527 1527 1527 1527 1527 1527 1526 1526 1525 1525 1524 1524 1524 1523 1523 1523 1523 1523 1523 1523 1523 1523 1523 1524 1524 1524 1525 1525 1526 1527 1528 1528 1529
1524 1525 1525 1525 1526 1526 1526 1526 1526 1526 1526 1526 1526 1526 1526 1526 1526 1525 1525 1524 1523 1523 1523 1523 1523 1523 1522 1522 1522 1522 1522 1522 1522 1523 1523 1523 1524 1525 1525 1526 1527 1528 1528
1523 1523 1523 1524 1524 1524 1524 1524 1524 1524 1524 1524 1525 1524 1524 1524 1524 1524 1524 1523 1522 1522 1521 1522 1522 1522 1521 1521 1521 1521 1521 1521 1521 1522 1522 1522 1523 1523 1524 1525 1526 1527 1527
1521 1521 1521 1522 1522 1522 1522 1522 1523 1523 1523 1523 1523 1523 1523 1522 1522 1522 1522 1522 1522 1521 1520 1520 1520 1520 1520 1519 1520 1520 1519 1520 1520 1520 1521 1521 1521 1522 1522 1523 1524 1525 1526
1519 1519 1519 1519 1519 1520 1520 1520 1520 1521 1521 1521 1521 1521 1520 1520 1520 1520 1520 1520 1520 1520 1519 1518 1518 1518 1517 1517 1517 1517 1518 1518 1518 1518 1519 1519 1519 1520 1521 1521 1522 1523 1524
1516 1516 1516 1517 1517 1517 1517 1518 1518 1518 1518 1518 1518 1518 1518 1518 1518 1518 1518 1517 1517 1517 1516 1516 1516 1515 1515 1515 1515 1515 1515 1516 1516 1516 1516 1517 1517 1518 1519 1519 1520 1521 1522
1513 1514 1514 1514 1514 1515 1515 1515 1515 1515 1516 1516 1516 1516 1516 1516 1515 1515 1515 1515 1514 1514 1514 1513 1513 1513 1513 1513 1513 1513 1513 1513 1513 1513 1514 1514 1514 1515 1516 1517 1518 1518 1519
1511 1511 1511 1511 1512 1512 1512 1512 1513 1513 1513 1513 1513 1513 1513 1513 1512 1512 1512 1512 1512 1512 1511 1511 1510 1510 1510 1510 1510 1510 1511 1511 1511 1511 1511 1511 1512 1512 1513 1514 1515 1516 1517
1508 1508 1508 1508 1509 1509 1509 1510 1510 1510 1510 1510 1510 1510 1510 1509 1509 1509 1509 1509 1509 1509 1509 1508 1508 1507 1507 1507 1507 1507 1507 1507 1507 1508 1508 1508 1509 1509 1510 1511 1512 1513 1514
1504 1504 1505 1505 1505 1506 1506 1506 1506 1507 1507 1506 1506 1506 1506 1506 1506 1506 1506 1506 1506 1506 1505 1505 1505 1504 1504 1504 1504 1504 1504 1504 1504 1504 1504 1505 1505 1506 1507 1508 1509 1510 1511
1500 1501 1501 1501 1502 1502 1503 1503 1503 1503 1503 1503 1502 1502 1502 1502 1502 1502 1502 1502 1503 1502 1502 1502 1501 1501 1501 1501 1501 1501 1501 1500 1500 1502 1501 1502 1502 1502 1503 1504 1505 1506 1507
1496 1496 1497 1497 1497 1498 1499 1500 1500 1500 1499 1499 1499 1499 1499 1498 1498 1498 1498 1498 1498 1499 1499 1499 1497 1497 1497 1498 1498 1498 1498 1497 1498 1498 1498 1498 1499 1499 1500 1500 1501 1502 1503
1492 1492 1492 1493 1493 1494 1495 1496 1496 1496 1496 1496 1496 1496 1495 1495 1494 1494 1494 1494 1494 1494 1495 1494 1494 1494 1494 1494 1494 1494 1494 1494 1494 1495 1495 1494 1495 1495 1496 1496 1497 1498 1499
1487 1487 1488 1488 1489 1489 1490 1491 1491 1492 1492 1492 1492 1492 1492 1491 1491 1491 1490 1490 1490 1490 1490 1490 1490 1490 1490 1490 1490 1490 1490 1490 1490 1490 1491 1491 1491 1491 1491 1492 1493 1494 1495
1483 1483 1484 1484 1485 1485 1486 1487 1488 1488 1488 1488 1488 1488 1488 1488 1488 1487 1487 1486 1485 1485 1486 1485 1485 1485 1485 1485 1486 1486 1486 1486 1486 1486 1487 1488 1487 1488 1487 1488 1489 1490 1490